Wind_Speed
40 39 40 39 38 38 38 37 37 37 37 37 36 35 35 35 34 34 33 33 33 32 32 31 30 30 29 29 28 27 28 27 25 25 25 24 23 23 22 22 21 21 20
40 40 40 40 40 40 40 39 39 39 39 39 38 38 37 37 36 36 35 35 35 35 34 33 33 32 31 31 30 29 29 29 27 27 27 26 25 24 24 22 22 22 21
41 41 41 41 41 41 42 41 41 41 41 41 40 40 40 39 39 38 38 37 37 37 37 36 35 34 33 33 32 31 31 30 30 29 28 28 27 26 25 24 24 23 23
43 43 44 43 43 43 43 43 42 42 42 42 42 42 42 42 42 41 40 40 39 39 38 38 37 37 36 35 35 34 33 32 32 31 30 29 29 28 27 26 25 25 25
45 45 45 45 45 45 44 44 44 44 43 43 44 44 44 43 44 44 43 42 41 41 40 40 39 39 38 37 37 36 35 34 34 33 32 31 30 30 29 28 28 27 26
47 46 46 46 46 46 46 46 45 45 45 45 45 45 45 45 45 46 46 45 44 43 43 42 41 41 40 39 38 38 37 36 36 35 34 33 32 31 31 31 30 29 29
48 48 48 48 47 48 48 47 46 47 46 46 46 46 46 46 47 47 47 47 47 45 44 44 44 43 42 41 40 40 39 39 38 37 36 35 34 33 33 32 32 32 31
48 49 49 49 49 49 49 49 48 48 47 47 47 48 48 47 47 47 47 47 47 47 46 46 46 46 45 44 43 42 41 41 41 39 39 37 37 35 35 34 34 34 33
48 49 50 49 49 49 50 50 50 50 49 49 49 48 48 48 47 48 48 48 48 47 46 47 47 46 46 46 45 43 43 42 42 41 40 39 38 37 37 36 36 35 34
48 49 50 50 50 51 51 52 52 51 51 50 50 49 49 49 49 49 49 49 49 49 48 48 48 48 47 47 47 46 45 44 43 43 42 42 41 40 39 39 38 37 36
48 50 50 51 51 52 52 53 53 53 52 51 51 51 51 50 50 50 50 50 50 50 50 49 49 49 48 49 49 48 47 47 46 44 44 43 43 42 41 41 40 39 39
49 50 50 51 51 51 52 53 54 53 53 53 53 53 52 52 51 51 52 52 51 51 51 51 50 49 49 50 50 50 50 50 49 47 45 45 44 44 44 43 42 41 40
49 50 50 51 52 52 52 53 54 54 54 55 55 55 54 53 53 53 53 54 53 52 52 52 52 51 51 51 51 52 52 51 51 50 48 47 46 46 45 44 44 43 42
50 50 51 52 53 53 54 54 54 54 55 55 55 56 56 55 55 55 55 55 55 55 54 54 53 52 52 52 52 53 52 53 52 52 51 50 49 48 46 46 45 45 44
50 51 51 52 53 54 54 55 54 54 55 55 56 56 56 57 57 56 57 57 56 56 56 56 56 54 53 52 53 54 54 55 54 53 52 52 52 50 48 47 48 47 47
52 52 51 52 53 54 55 56 56 56 56 56 57 57 57 57 58 59 59 59 59 58 58 57 58 56 55 54 55 54 54 55 55 54 54 54 52 52 50 50 49 50 48
52 52 53 53 53 54 55 57 57 58 58 58 58 58 58 59 59 59 59 59 60 60 59 58 58 58 57 56 55 55 55 55 55 55 55 55 54 53 52 51 50 50 49
52 53 53 54 54 55 56 57 58 59 59 60 60 59 59 59 60 59 59 60 60 60 60 59 59 59 58 57 56 55 56 56 56 56 55 55 55 54 53 53 52 52 51
52 53 53 54 54 55 55 57 58 59 60 61 61 61 60 60 60 60 60 60 60 60 60 60 60 59 59 59 57 57 57 57 57 57 56 56 55 55 55 54 53 53 52
52 53 53 53 53 54 54 55 56 58 59 60 61 61 61 61 61 61 60 60 60 60 60 60 60 59 60 59 58 57 56 57 57 57 58 57 56 56 55 55 55 54 53
53 53 53 53 53 53 52 52 54 56 58 58 59 59 60 60 61 61 61 61 61 61 61 60 60 60 60 60 59 58 57 57 57 57 58 58 57 57 56 55 55 54 54
51 52 52 53 53 53 54 54 54 54 56 57 57 58 59 59 60 60 61 61 61 61 61 60 60 60 60 60 59 59 58 57 57 58 58 58 58 58 57 57 56 56 55
49 50 52 53 53 54 54 54 55 54 55 55 56 57 58 59 59 60 61 61 61 61 61 61 60 60 60 60 60 59 59 58 58 58 59 58 58 58 58 58 57 57 56
47 48 49 49 51 52 53 53 53 53 54 54 54 56 57 58 59 60 61 61 61 61 61 61 60 60 60 60 59 59 58 58 58 58 58 58 58 58 58 58 58 57 57
46 47 48 48 48 49 50 51 51 51 51 52 52 53 54 55 57 58 59 59 60 61 61 61 61 61 62 61 61 60 58 58 57 58 58 58 59 59 59 58 58 58 57
45 45 46 47 47 47 48 48 49 50 50 51 51 51 52 52 53 54 56 57 57 58 59 60 61 61 62 62 62 61 60 59 59 58 58 59 59 59 59 58 58 58 58
Wind_Direction
255 254 254 253 252 252 251 250 250 249 249 248 247 246 246 247 246 245 245 246 246 245 244 244 244 245 246 246 246 247 249 249 250 250 251 250 252 254 254 253 254 256 258
254 253 253 252 252 251 251 252 251 250 250 249 248 248 247 247 247 246 245 246 246 246 245 245 245 245 245 245 245 247 248 248 249 252 252 252 253 254 253 254 255 256 257
254 254 253 253 252 251 251 251 252 251 250 249 249 249 248 247 247 247 247 247 247 248 247 247 247 246 245 245 245 246 247 247 249 252 251 251 252 253 254 254 254 255 256
254 254 253 253 253 252 251 251 251 251 250 250 250 249 249 248 247 246 247 247 248 248 248 248 248 247 246 247 247 247 247 247 248 250 250 250 252 253 254 254 254 255 257
254 254 253 253 253 252 251 251 251 251 251 251 250 250 249 248 248 248 247 247 247 248 248 248 247 246 246 247 247 247 247 247 248 250 250 250 251 253 253 253 253 255 256
254 253 252 252 252 251 251 251 251 251 251 251 250 250 249 248 248 248 248 248 248 247 247 247 247 246 245 245 246 247 246 247 248 249 249 249 250 251 252 253 253 254 255
254 253 253 252 252 251 251 251 251 251 251 251 251 250 250 249 248 248 248 248 248 247 247 247 246 245 245 245 245 246 245 246 248 248 248 249 250 251 252 253 254 254 257
255 254 253 253 253 252 251 250 250 251 251 251 251 250 250 249 249 247 247 247 248 247 247 247 246 246 244 244 245 245 246 247 248 249 249 250 251 251 252 254 254 255 256
255 254 253 253 252 252 250 250 250 251 251 251 251 250 250 249 248 247 247 247 248 248 248 248 247 245 244 244 244 245 246 247 248 249 250 250 251 253 253 254 254 255 257
256 255 253 252 252 251 250 250 250 250 251 251 251 250 250 250 249 248 247 247 248 248 249 248 247 246 244 244 243 243 245 246 248 248 249 250 251 252 253 255 255 256 257
256 255 255 254 252 251 251 250 250 250 250 250 250 250 250 250 250 249 248 247 248 248 248 248 248 247 246 245 244 244 245 246 247 248 249 250 251 252 252 254 254 256 257
257 256 256 254 253 252 250 250 250 250 250 250 249 250 250 250 250 249 248 248 248 248 248 248 248 247 246 247 245 245 245 245 246 248 248 249 251 251 253 254 253 255 256
258 257 256 255 253 252 252 250 249 249 249 249 249 250 250 251 250 250 249 248 247 247 247 247 246 247 247 248 246 245 245 246 246 246 248 249 250 252 253 254 253 254 256
258 257 256 256 254 253 252 250 249 249 249 249 249 250 250 250 250 250 249 248 247 246 246 246 247 248 248 249 248 247 247 246 246 246 247 249 250 252 253 254 254 254 255
258 258 257 256 255 254 252 251 250 250 250 250 250 250 250 250 250 249 249 248 248 247 246 246 247 248 249 249 249 247 247 247 247 247 248 249 250 251 253 254 254 255 256
258 258 257 256 254 253 252 252 252 251 250 251 251 251 251 250 250 250 249 248 247 247 246 246 246 247 248 248 248 248 248 247 248 247 248 249 250 251 252 253 255 255 256
259 259 258 257 255 253 252 252 253 253 252 252 252 251 252 251 250 250 249 248 247 247 246 246 246 246 247 248 248 248 248 248 247 248 249 249 250 251 252 253 255 256 256
259 259 258 258 257 255 254 254 253 253 253 253 253 252 252 252 250 249 249 248 247 246 246 246 246 246 247 247 247 247 247 248 248 248 248 249 250 250 252 253 255 256 256
260 259 258 258 257 257 256 255 254 254 254 253 253 253 252 251 250 249 249 248 247 246 246 246 246 246 247 246 246 246 247 247 247 248 248 250 250 251 252 253 254 255 256
260 259 258 257 257 258 257 256 255 254 254 254 253 253 252 250 249 249 249 248 247 246 245 245 246 246 246 245 245 246 246 246 246 247 249 249 250 251 252 253 254 255 256
260 259 258 257 257 257 257 257 256 255 255 254 254 252 251 250 249 248 248 247 247 246 245 245 246 245 245 245 245 245 245 246 246 247 248 248 249 251 252 253 253 254 256
260 259 258 257 257 257 257 257 256 256 256 255 253 251 250 250 249 248 248 247 246 246 245 245 245 245 244 245 245 244 245 246 247 247 247 248 249 250 252 252 252 253 255
261 260 258 257 257 257 256 257 256 256 256 256 254 252 251 251 250 249 248 248 246 246 245 245 245 245 244 244 244 244 245 246 247 248 248 249 250 250 251 251 253 254 255
262 261 259 258 258 257 256 256 257 256 256 255 254 253 252 251 250 249 248 248 247 246 246 246 246 245 244 244 244 245 246 247 248 248 249 249 249 250 251 252 253 254 256
264 263 260 259 258 258 257 256 256 256 255 254 253 253 251 250 249 249 248 248 247 247 247 246 246 246 246 245 245 246 247 248 248 249 249 250 250 251 252 253 254 255 256
265 263 261 259 258 258 257 256 256 255 254 254 253 252 251 250 249 249 248 247 246 246 246 246 246 246 245 246 247 248 249 249 249 249 250 250 251 251 252 253 255 255 256
Height
5757 5758 5760 5761 5763 5765 5766 5768 5770 5773 5775 5777 5780 5782 5785 5787 5790 5792 5795 5797 5799 5801 5804 5806 5808 5809 5811 5813 5814 5816 5817 5819 5820 5821 5822 5823 5824 5825 5826 5827 5828 5828 5829
5748 5749 5750 5752 5754 5756 5758 5759 5761 5764 5766 5769 5771 5774 5776 5779 5782 5784 5787 5789 5792 5794 5797 5799 5801 5803 5805 5807 5808 5810 5812 5813 5814 5816 5817 5818 5819 5820 5821 5822 5823 5824 5824
5738 5740 5741 5743 5744 5746 5748 5750 5752 5754 5757 5759 5762 5765 5767 5770 5773 5776 5778 5781 5784 5786 5789 5791 5793 5796 5798 5800 5802 5803 5805 5807 5808 5810 5811 5812 5814 5815 5816 5817 5818 5819 5820
5728 5729 5731 5732 5734 5736 5738 5740 5743 5745 5747 5750 5752 5755 5758 5761 5764 5766 5769 5772 5775 5777 5780 5783 5785 5788 5790 5792 5795 5796 5798 5800 5802 5803 5805 5806 5808 5809 5810 5812 5813 5814 5815
5716 5718 5720 5721 5723 5725 5727 5730 5732 5735 5737 5740 5742 5745 5748 5751 5754 5757 5760 5762 5765 5768 5771 5774 5776 5779 5782 5784 5786 5789 5791 5793 5795 5796 5798 5800 5801 5803 5804 5806 5807 5808 5809
5705 5706 5708 5710 5711 5714 5716 5719 5721 5724 5727 5729 5731 5734 5737 5740 5743 5746 5749 5752 5755 5758 5761 5764 5767 5770 5773 5775 5778 5781 5783 5785 5787 5789 5791 5793 5794 5796 5798 5799 5801 5802 5803
5692 5694 5696 5698 5700 5702 5705 5707 5710 5713 5715 5718 5721 5723 5726 5729 5732 5735 5738 5741 5744 5747 5750 5754 5757 5760 5763 5766 5769 5771 5774 5776 5779 5781 5783 5785 5787 5789 5791 5792 5794 5795 5796
5680 5682 5684 5686 5688 5690 5693 5696 5698 5701 5704 5706 5709 5712 5715 5718 5720 5723 5726 5729 5733 5736 5740 5743 5746 5749 5753 5756 5759 5762 5765 5767 5770 5772 5774 5777 5779 5781 5783 5785 5786 5788 5789
5668 5670 5672 5674 5676 5678 5681 5683 5686 5689 5692 5694 5697 5700 5703 5706 5709 5712 5715 5718 5722 5725 5728 5731 5735 5738 5742 5745 5749 5752 5755 5758 5761 5763 5765 5768 5771 5773 5775 5777 5778 5780 5781
5655 5657 5658 5661 5663 5665 5668 5671 5674 5677 5679 5682 5684 5687 5691 5694 5697 5701 5704 5707 5710 5713 5717 5720 5723 5727 5730 5734 5738 5742 5745 5748 5751 5754 5756 5759 5761 5764 5766 5768 5770 5771 5773
5643 5644 5646 5648 5650 5652 5655 5658 5661 5664 5667 5669 5672 5675 5678 5682 5685 5688 5692 5695 5698 5702 5705 5709 5712 5716 5719 5723 5726 5730 5734 5738 5741 5744 5747 5749 5751 5754 5756 5759 5760 5762 5764
5630 5631 5633 5634 5637 5639 5642 5645 5647 5650 5653 5656 5659 5662 5666 5669 5672 5675 5679 5683 5686 5690 5693 5697 5700 5704 5708 5711 5715 5719 5723 5726 5730 5733 5736 5739 5741 5744 5746 5748 5751 5753 5754
5618 5619 5620 5621 5624 5626 5628 5631 5634 5637 5640 5643 5646 5649 5652 5655 5659 5662 5666 5669 5673 5677 5681 5684 5688 5692 5695 5699 5703 5707 5711 5714 5718 5722 5725 5728 5731 5733 5736 5738 5740 5743 5744
5605 5605 5607 5608 5610 5612 5615 5617 5620 5623 5626 5629 5632 5635 5639 5642 5645 5648 5652 5655 5659 5664 5668 5671 5674 5678 5682 5686 5690 5694 5698 5702 5705 5709 5713 5716 5719 5722 5724 5727 5729 5732 5734
5591 5592 5593 5595 5596 5599 5601 5603 5606 5609 5612 5615 5618 5621 5624 5627 5630 5633 5637 5641 5645 5649 5654 5658 5661 5665 5669 5673 5677 5681 5685 5689 5693 5696 5700 5703 5707 5710 5712 5715 5718 5720 5722
5577 5578 5579 5580 5582 5584 5587 5589 5592 5595 5598 5600 5603 5606 5609 5612 5615 5618 5622 5626 5629 5634 5639 5644 5647 5652 5656 5660 5664 5667 5671 5675 5679 5683 5687 5691 5694 5697 5700 5703 5705 5708 5710
5563 5564 5565 5566 5568 5570 5572 5575 5578 5580 5583 5586 5588 5591 5594 5596 5600 5603 5606 5610 5614 5618 5624 5629 5633 5637 5641 5646 5650 5654 5658 5662 5666 5670 5674 5678 5681 5684 5688 5690 5693 5695 5698
5548 5549 5551 5552 5553 5555 5558 5560 5563 5565 5568 5570 5573 5576 5578 5581 5584 5587 5591 5595 5599 5603 5608 5613 5617 5622 5627 5631 5636 5640 5644 5648 5653 5657 5661 5664 5668 5671 5675 5678 5680 5683 5685
5534 5535 5536 5537 5539 5540 5542 5545 5547 5550 5552 5555 5557 5560 5562 5565 5568 5572 5575 5579 5583 5587 5592 5597 5602 5606 5611 5616 5621 5625 5630 5634 5639 5643 5647 5651 5654 5657 5661 5664 5667 5670 5672
5519 5520 5521 5522 5524 5525 5527 5529 5531 5533 5536 5538 5541 5543 5546 5549 5552 5556 5560 5563 5567 5572 5576 5581 5586 5590 5595 5600 5605 5610 5615 5620 5624 5629 5633 5637 5640 5643 5647 5651 5654 5657 5659
5504 5505 5506 5507 5509 5510 5512 5514 5516 5518 5520 5522 5524 5527 5530 5533 5536 5540 5544 5548 5552 5556 5561 5565 5570 5575 5580 5584 5589 5595 5600 5604 5609 5614 5618 5622 5626 5630 5633 5636 5639 5642 5645
5489 5490 5491 5492 5494 5495 5497 5498 5500 5502 5504 5506 5508 5511 5514 5517 5521 5524 5528 5532 5536 5541 5546 5550 5555 5560 5565 5569 5574 5579 5584 5589 5595 5601 5603 5607 5611 5615 5618 5622 5625 5628 5631
5474 5474 5476 5477 5479 5480 5482 5483 5484 5486 5488 5490 5492 5495 5498 5502 5505 5509 5513 5516 5521 5525 5530 5535 5540 5545 5550 5555 5559 5565 5569 5573 5579 5584 5588 5593 5596 5600 5604 5607 5610 5614 5616
5460 5460 5461 5462 5463 5465 5466 5467 5468 5470 5473 5475 5477 5480 5483 5486 5489 5493 5497 5501 5505 5510 5515 5520 5526 5531 5534 5539 5544 5549 5553 5558 5564 5568 5572 5577 5581 5585 5589 5592 5595 5598 5601
5445 5445 5446 5447 5448 5449 5450 5452 5453 5455 5458 5460 5463 5465 5468 5471 5475 5478 5482 5487 5491 5495 5499 5504 5510 5515 5519 5524 5528 5533 5538 5543 5548 5553 5557 5562 5566 5569 5573 5577 5580 5583 5586
5431 5431 5431 5432 5434 5435 5436 5437 5438 5441 5444 5446 5449 5451 5454 5457 5459 5462 5466 5471 5475 5480 5485 5490 5495 5499 5504 5509 5513 5518 5523 5527 5532 5537 5542 5546 5550 5553 5558 5562 5564 5567 5570